STARLINK-35853, 67177

Orbit data source: Space-Track

STARLINK-35853, 67177 is a payload satellite owned by SpaceX/Seattle (US) in LEO that was launched on Wed, 17 Dec 2025 UTC via an FALCON 9 launch vehicle from the Air Force Eastern Test Range (AFETR). Payload-class satellites include a variety of spacecraft equipped with specific instruments for various scientific and technological missions. These include communications satellites like Starlink; space stations such as the ISS; scientific satellites like the Hubble; Earth observation satellites from companies like Planet Labs, Umbra, and HawkEye 360; GPS; miniature CubeSats for education and research; and military/defense satellites.

Loading next visibility...
Identifier
67177, 2025-303Q
Orbit
LEO
Country
Flag of USUS
Related business
Manufacturer
SpaceX/Seattle
Mission
Operational Commercial Communications
Bus & Motor
STARLINK V2MO, Unknown motor
Mass
575 kg wet, ~530 kg dry
Launch date (UTC)
2025-12-17 (6 months ago)
Launch vehicle
FALCON 9
Launch site
Air Force Eastern Test Range (AFETR)
Object type
Payload
Rocket body
Debris
Shape & HBR
Box + 2 Pan, 17.7 m
Radar Cross Section
36.964 m², Large (>1 m²)

Expand to show TLE details & history
Last TLE update: 15 hours ago

TLE from 15 hours ago
0 STARLINK-35853
1 67177U 25303Q   26171.21091845  .00010288  00000-0  38268-3 0  9997
2 67177  42.9996  91.7949 0000409 272.8963  87.1841 15.27593537 28419
Epoch: 2026-06-20T05:03Z
TLE epoch observation values (Epoch: 2026-06-20T05:03:43.354Z)
Latitude
-0.00006°
Longitude
107.43539°
Altitude
482.77 km
Speed
7.626 km/s
True Right ascension
06h 07m 10s
True Declination
0° 00' 00"
Sunlit
Object was in daylight at epoch
Visualization orbit readout
Latitude
Unknown
Longitude
Unknown
Altitude
Unknown
Speed
Unknown
Apparent Right ascension
Unknown
Apparent Declination
Unknown
Sunlit
N/A
Visualization observer readout
Local Sidereal Time
07:16:33
Azimuth
Unknown
Elevation
Unknown
Doppler factor
Unknown
Orbital elements
Apogee altitude
485.235 km
Perigee altitude
484.673 km
Semi-major axis
6,863.091 km
Eccentricity
0.00004
Inclination
42.9996°
RAAN
91.7949°
Arg. of periapsis
272.8963°
True anomaly
87.18878°
Mean anomaly
87.1841°
Eccentric anomaly
87.18644°
Mean motion
3.81736 °/min
Orbital period
94.31 mins
BSTAR
0.00038268
Loading maneuver chart data...
Computing Atmospheric mass density...
Loading historical data...
Loading historical data...
Loading historical data...
Loading historical data...
Loading historical data...
Loading historical data...
Loading historical data...

Documentation

Showing up to 5 results
|